WESTFORD NEEDLES, 2949

Orbit data source: Space-Track

WESTFORD NEEDLES, 2949 is space debris in LEO originally from a launch on Thu, 09 May 1963 UTC launched from the Air Force Western Test Range (AFWTR). Debris objects in space refer to the collection of defunct objects orbiting the Earth. Examples of debris include non-operational satellites, rocket bodies, and fragments generated from explosions, collisions, or faulty payload assembly.

Loading next visibility...
Identifier
2949, 1963-014AS
Orbit
LEO
Country
Flag of USUS
Related business
Manufacturer
Unknown
Mission
Spacecraft
Bus & Motor
Unknown
Mass
Unknown
Launch date (UTC)
1963-05-09 (63 years ago)
Launch vehicle
Unknown
Launch site
Air Force Western Test Range (AFWTR)
Object type
Payload
Rocket body
Debris
Shape & HBR
Unknown shape, 0.2 m
Radar Cross Section
Medium (>0.1 m² and <1 m²)

Expand to show TLE details & history
Last TLE update: 15 hours ago

TLE from 15 hours ago
0 WESTFORD NEEDLES
1  2949U 63014AS  26237.27200816 -.00003301  00000-0 -78771-1 0  9994
2  2949  85.4452 345.5555 2258440   3.8954  14.7266  8.85429409401921
Epoch: 2026-08-25T06:31Z
TLE epoch observation values (Epoch: 2026-08-25T06:31:41.505Z)
Latitude
27.53323°
Longitude
-83.54125°
Altitude
1,385.622 km
Speed
7.897 km/s
True Right ascension
23h 11m 41s
True Declination
27° 24' 14"
Sunlit
Object was in full shadow at epoch
Visualization orbit readout
Latitude
Unknown
Longitude
Unknown
Altitude
Unknown
Speed
Unknown
Apparent Right ascension
Unknown
Apparent Declination
Unknown
Sunlit
N/A
Visualization observer readout
Local Sidereal Time
13:05:25
Azimuth
Unknown
Elevation
Unknown
Doppler factor
Unknown
Orbital elements
Apogee altitude
5,717.549 km
Perigee altitude
1,260.639 km
Semi-major axis
9,867.231 km
Eccentricity
0.22584
Inclination
85.4452°
RAAN
345.5555°
Arg. of periapsis
3.8954°
True anomaly
23.6874°
Mean anomaly
14.7266°
Eccentric anomaly
18.92297°
Mean motion
2.21437 °/min
Orbital period
162.57 mins
BSTAR
-0.078771
Loading maneuver chart data...
Computing Atmospheric mass density...

Documentation

Showing up to 5 results
|